Date,Time,Wetness (Wet Dry or Ice),Wind Speed (m/s),Temperature (C),Humidity (%),Pressure (mb),Radiation (W/m^2)
2022-03-31,01:55:00,DRY,4.45,5.40,12.5,772.00,1.1
2022-03-31,02:00:00,DRY,3.77,5.60,13.3,772.00,1.2
2022-03-31,02:05:00,DRY,4.50,5.95,12.5,772.00,1.1
2022-03-31,02:10:00,DRY,4.87,6.07,10.0,772.00,0.9
2022-03-31,02:15:00,DRY,5.15,6.25,11.5,772.00,1.2
2022-03-31,02:20:00,DRY,5.20,5.60,13.3,772.00,1.0
2022-03-31,02:25:00,DRY,4.35,5.15,15.5,772.00,2.1
2022-03-31,02:30:00,DRY,5.03,4.57,18.3,772.00,1.5
2022-03-31,02:35:00,DRY,4.95,4.30,20.0,772.00,1.5
2022-03-31,02:40:00,DRY,5.50,4.00,22.0,772.00,1.5
2022-03-31,02:45:00,DRY,6.05,3.55,27.0,772.00,1.4
2022-03-31,02:50:00,DRY,5.90,3.57,25.3,772.00,1.1
2022-03-31,02:55:00,DRY,4.25,3.50,24.5,772.00,1.3
2022-03-31,03:00:00,DRY,5.27,3.50,25.3,772.00,1.5
2022-03-31,03:05:00,DRY,6.10,3.35,28.5,771.00,1.3
2022-03-31,03:10:00,DRY,6.23,3.27,30.7,771.00,1.4
2022-03-31,03:15:00,DRY,6.05,3.70,27.0,771.00,1.4
2022-03-31,03:20:00,DRY,5.57,3.40,29.0,771.00,1.3
2022-03-31,03:25:00,DRY,4.15,3.40,26.0,771.00,1.4
2022-03-31,03:30:00,DRY,5.27,3.23,29.3,771.00,1.4
2022-03-31,03:35:00,DRY,4.95,3.75,19.5,771.00,1.4
2022-03-31,03:40:00,DRY,4.83,3.93,15.0,771.00,1.9
2022-03-31,03:45:00,DRY,5.40,3.80,17.5,771.00,1.1
2022-03-31,03:50:00,DRY,4.63,4.27,12.0,771.00,1.5
2022-03-31,03:55:00,DRY,4.45,4.50,11.0,771.00,0.9
2022-03-31,04:00:00,DRY,5.60,4.27,12.0,771.00,1.9
2022-03-31,04:05:00,DRY,5.15,4.50,10.5,771.00,1.6
2022-03-31,04:10:00,DRY,6.20,5.00,12.0,771.00,1.7
2022-03-31,04:15:00,DRY,4.40,4.90,12.5,771.00,1.5
2022-03-31,04:20:00,DRY,5.20,4.77,12.3,771.00,1.0
2022-03-31,04:25:00,DRY,4.95,4.60,12.0,771.00,1.2
2022-03-31,04:30:00,DRY,6.50,5.33,11.0,771.00,1.5
2022-03-31,04:35:00,DRY,4.70,5.65,11.0,771.00,1.1
2022-03-31,04:40:00,DRY,7.13,5.90,10.7,771.00,2.0
2022-03-31,04:45:00,DRY,6.20,6.00,12.0,771.00,1.0
2022-03-31,04:50:00,DRY,6.83,5.67,16.3,771.00,1.5
2022-03-31,04:55:00,DRY,9.15,5.90,13.0,771.00,0.8
2022-03-31,05:00:00,DRY,6.03,5.07,12.3,771.00,1.3
2022-03-31,05:05:00,DRY,6.30,4.60,11.0,771.00,0.8
2022-03-31,05:10:00,DRY,6.23,5.17,11.0,771.00,0.8
2022-03-31,05:15:00,DRY,5.45,5.20,10.5,771.00,1.5
2022-03-31,05:20:00,DRY,5.67,5.17,11.0,771.00,1.4
2022-03-31,05:25:00,DRY,5.60,5.05,12.0,771.00,1.0
2022-03-31,05:30:00,DRY,4.90,4.77,14.0,771.00,1.1
2022-03-31,05:35:00,DRY,6.85,4.70,14.0,771.00,1.4
2022-03-31,05:40:00,DRY,5.20,5.37,11.7,771.00,1.2
2022-03-31,05:45:00,DRY,4.10,5.30,14.5,771.00,1.3
2022-03-31,05:50:00,DRY,4.63,5.80,15.0,771.00,1.3
2022-03-31,05:55:00,DRY,4.95,6.20,16.5,771.00,0.5
2022-03-31,06:00:00,DRY,5.17,6.23,18.7,771.67,1.0
2022-03-31,06:05:00,DRY,6.15,6.45,23.0,771.50,1.5
2022-03-31,06:10:00,DRY,5.20,6.37,21.7,771.33,1.7
2022-03-31,06:15:00,DRY,5.10,6.40,21.0,771.50,1.6
2022-03-31,06:20:00,DRY,5.50,6.37,19.7,771.33,1.5
2022-03-31,06:25:00,DRY,5.00,6.35,18.5,772.00,1.2
2022-03-31,06:30:00,DRY,5.17,6.23,18.3,771.33,1.3
2022-03-31,06:35:00,DRY,5.50,6.00,16.0,772.00,1.5
2022-03-31,06:40:00,DRY,4.50,5.87,13.7,772.00,1.3
2022-03-31,06:45:00,DRY,7.00,5.90,16.5,772.00,1.6
2022-03-31,06:50:00,DRY,6.10,6.00,19.0,772.00,2.3
2022-03-31,06:55:00,DRY,6.80,6.05,19.0,772.00,4.0
2022-03-31,07:00:00,DRY,5.70,5.97,17.3,772.00,5.9
2022-03-31,07:05:00,DRY,6.60,5.90,16.0,772.00,12.2
2022-03-31,07:10:00,DRY,5.90,6.10,15.0,772.00,21.6
2022-03-31,07:15:00,DRY,6.00,6.10,11.5,772.00,18.0
2022-03-31,07:20:00,DRY,6.93,5.93,10.0,772.00,21.5
2022-03-31,07:25:00,DRY,6.40,5.50,9.5,772.00,25.0
2022-03-31,07:30:00,DRY,6.60,5.70,7.7,772.00,27.8
2022-03-31,07:35:00,DRY,5.25,5.85,8.0,772.00,30.2
2022-03-31,07:40:00,DRY,6.90,6.03,7.3,772.00,33.4
2022-03-31,07:45:00,DRY,5.85,5.85,8.5,772.00,35.3
2022-03-31,07:50:00,DRY,5.97,5.90,7.7,772.00,37.6
2022-03-31,07:55:00,DRY,6.55,6.00,9.0,772.00,39.5
2022-03-31,08:00:00,DRY,6.37,6.20,9.0,772.00,41.1
2022-03-31,08:05:00,DRY,5.55,6.40,9.5,772.00,43.0
2022-03-31,08:10:00,DRY,4.80,6.50,12.7,772.00,145.1
2022-03-31,08:15:00,DRY,4.25,6.80,13.5,772.00,336.1
2022-03-31,08:20:00,DRY,5.80,6.93,14.7,772.00,361.5
2022-03-31,08:25:00,DRY,4.75,6.95,12.0,772.00,386.4
2022-03-31,08:30:00,DRY,5.57,6.97,14.0,772.00,405.4
2022-03-31,08:35:00,DRY,5.50,6.90,12.5,772.00,429.2
2022-03-31,08:40:00,DRY,4.87,7.03,10.7,772.00,460.0
2022-03-31,08:45:00,DRY,4.10,7.20,10.0,772.00,482.6
2022-03-31,08:50:00,DRY,3.57,7.63,10.0,772.00,506.3
2022-03-31,08:55:00,DRY,4.85,7.60,12.0,772.00,530.3
2022-03-31,09:00:00,DRY,3.60,7.43,13.7,772.00,553.0
2022-03-31,09:05:00,DRY,2.40,7.40,13.0,772.00,575.0
2022-03-31,09:10:00,DRY,4.17,7.30,14.0,772.00,597.0
2022-03-31,09:15:00,DRY,3.95,7.25,16.5,772.00,617.8
2022-03-31,09:20:00,DRY,2.60,7.50,17.3,772.33,640.0
2022-03-31,09:25:00,DRY,3.35,7.70,19.0,773.00,661.1
2022-03-31,09:30:00,DRY,3.10,7.70,20.7,773.00,681.3
2022-03-31,09:35:00,DRY,4.25,7.80,18.5,773.00,701.0
2022-03-31,09:40:00,DRY,5.30,7.90,19.0,773.00,720.8
2022-03-31,09:45:00,DRY,5.45,7.65,21.5,773.00,739.3
2022-03-31,09:50:00,DRY,6.63,7.67,20.7,773.00,760.0
2022-03-31,09:55:00,DRY,5.35,7.60,21.5,773.00,779.0
2022-03-31,10:00:00,DRY,5.63,7.80,23.0,773.00,797.5
2022-03-31,10:05:00,DRY,4.10,7.90,25.5,773.00,815.0
2022-03-31,10:10:00,DRY,5.37,8.37,22.7,773.00,833.0
2022-03-31,10:15:00,DRY,3.20,8.30,22.5,773.00,849.0
2022-03-31,10:20:00,DRY,4.63,8.73,22.3,773.00,866.1
2022-03-31,10:25:00,DRY,4.10,8.85,24.0,773.00,882.4
2022-03-31,10:30:00,DRY,4.30,8.97,23.3,773.00,898.5
2022-03-31,10:35:00,DRY,4.15,8.80,24.0,773.00,915.4
2022-03-31,10:40:00,DRY,2.90,8.63,25.3,773.00,929.5
2022-03-31,10:45:00,DRY,4.20,8.75,25.0,773.00,945.5
2022-03-31,10:50:00,DRY,5.20,8.73,24.3,773.00,959.0
2022-03-31,10:55:00,DRY,2.75,8.75,24.0,773.00,971.8
2022-03-31,11:00:00,DRY,4.23,8.67,26.3,773.00,986.5
2022-03-31,11:05:00,DRY,3.40,8.75,26.0,773.00,999.4
2022-03-31,11:10:00,DRY,5.13,8.73,26.3,773.00,1011.2
2022-03-31,11:15:00,DRY,5.25,8.80,27.5,773.00,1024.2
2022-03-31,11:20:00,DRY,4.27,9.13,25.0,773.00,1035.6
2022-03-31,11:25:00,DRY,4.90,9.40,26.0,773.00,1046.7
2022-03-31,11:30:00,DRY,4.07,9.40,27.0,773.00,1057.5
2022-03-31,11:35:00,DRY,4.55,9.25,25.0,773.00,1067.8
2022-03-31,11:40:00,DRY,5.83,9.10,27.3,773.00,1076.5
2022-03-31,11:45:00,DRY,3.35,9.10,29.5,773.00,1085.2
2022-03-31,11:50:00,DRY,3.73,9.03,32.0,773.00,1093.6
2022-03-31,11:55:00,DRY,5.00,9.25,36.5,773.00,1102.1
2022-03-31,12:00:00,DRY,4.40,8.60,37.7,773.00,1108.8
2022-03-31,12:05:00,DRY,6.05,8.65,37.0,773.00,1114.8
2022-03-31,12:10:00,DRY,4.07,8.63,37.0,773.00,1120.8
2022-03-31,12:15:00,DRY,5.90,8.85,35.0,773.00,1128.1
2022-03-31,12:20:00,DRY,4.37,9.00,38.0,773.00,1131.6
2022-03-31,12:25:00,DRY,5.70,9.00,32.5,773.00,1136.2
2022-03-31,12:30:00,DRY,5.13,8.83,30.3,773.00,1141.1
2022-03-31,12:35:00,DRY,4.85,8.95,33.0,773.00,1144.3
2022-03-31,12:40:00,DRY,5.67,8.87,30.0,773.00,1147.9
2022-03-31,12:45:00,DRY,4.90,8.95,28.0,773.00,1152.5
2022-03-31,12:50:00,DRY,7.00,9.20,25.0,773.00,1154.6
2022-03-31,12:55:00,DRY,7.40,8.95,28.0,773.00,1155.8
2022-03-31,13:00:00,DRY,5.57,9.27,28.0,773.00,1158.5
2022-03-31,13:05:00,DRY,5.20,9.80,28.0,773.00,1159.5
2022-03-31,13:10:00,DRY,5.03,9.80,28.0,773.00,1159.3
2022-03-31,13:15:00,DRY,6.00,9.85,29.5,773.00,1159.0
2022-03-31,13:20:00,DRY,5.33,9.70,30.3,773.00,1157.9
2022-03-31,13:25:00,DRY,3.30,9.90,32.5,773.00,1157.1
2022-03-31,13:30:00,DRY,5.10,9.60,32.0,773.00,1156.6
2022-03-31,13:35:00,DRY,6.70,9.80,33.0,773.00,1152.1
2022-03-31,13:40:00,DRY,5.83,9.73,33.3,773.00,1148.0
2022-03-31,13:45:00,DRY,5.85,9.65,35.5,773.00,1143.6
2022-03-31,13:50:00,DRY,4.43,10.00,35.3,773.00,1140.6
2022-03-31,13:55:00,DRY,6.55,9.95,33.5,773.00,1136.5
2022-03-31,14:00:00,DRY,5.93,9.67,40.7,773.00,1130.2
2022-03-31,14:05:00,DRY,5.05,9.65,44.5,773.00,1125.8
2022-03-31,14:10:00,DRY,6.67,9.50,42.3,773.00,1119.1
2022-03-31,14:15:00,DRY,7.75,9.30,43.0,773.00,1112.5
2022-03-31,14:20:00,DRY,6.80,9.57,41.7,773.00,1105.5
2022-03-31,14:25:00,DRY,5.35,9.70,42.0,773.00,1098.7
2022-03-31,14:30:00,DRY,6.47,9.60,43.7,773.00,1091.7
2022-03-31,14:35:00,DRY,8.10,9.60,42.0,772.50,1084.7
2022-03-31,14:40:00,DRY,5.77,9.73,39.7,772.00,1076.2
2022-03-31,14:45:00,DRY,5.25,9.65,37.5,772.00,1066.0
2022-03-31,14:50:00,DRY,5.37,9.73,37.3,772.00,1057.3
2022-03-31,14:55:00,DRY,5.85,9.70,41.0,772.00,1047.1
2022-03-31,15:00:00,DRY,6.03,9.63,38.0,772.00,1036.3
2022-03-31,15:05:00,DRY,6.90,9.55,39.5,772.00,1026.0
2022-03-31,15:10:00,DRY,5.07,9.80,35.3,772.00,1013.3
2022-03-31,15:15:00,DRY,5.35,9.55,37.0,772.00,1000.5
2022-03-31,15:20:00,DRY,5.03,9.70,39.0,772.00,988.3
2022-03-31,15:25:00,DRY,3.70,9.90,38.5,772.00,974.1
2022-03-31,15:30:00,DRY,5.50,9.80,42.7,772.00,960.2
2022-03-31,15:35:00,DRY,6.15,9.60,42.5,772.00,946.0
2022-03-31,15:40:00,DRY,4.53,9.67,41.7,772.00,931.1
2022-03-31,15:45:00,DRY,4.70,9.20,43.5,772.00,916.3
2022-03-31,15:50:00,DRY,4.13,8.77,47.3,772.00,899.1
2022-03-31,15:55:00,DRY,3.75,8.75,44.0,772.00,881.6
2022-03-31,16:00:00,DRY,5.13,8.73,47.3,772.00,866.8
2022-03-31,16:05:00,DRY,3.25,8.70,46.0,772.00,848.6
2022-03-31,16:10:00,DRY,5.03,8.70,48.3,772.00,830.2
2022-03-31,16:15:00,DRY,4.35,8.95,47.5,772.00,811.5
2022-03-31,16:20:00,DRY,4.50,8.57,47.3,772.00,793.7
2022-03-31,16:25:00,DRY,5.55,8.55,49.0,772.00,774.1
2022-03-31,16:30:00,DRY,4.27,8.53,48.3,772.00,754.9
2022-03-31,16:35:00,DRY,5.80,8.30,49.5,772.00,736.4
2022-03-31,16:40:00,DRY,5.07,8.23,49.0,772.00,716.6
2022-03-31,16:45:00,DRY,5.60,8.20,49.0,772.00,697.2
2022-03-31,16:50:00,DRY,4.50,8.00,50.0,772.00,675.9
2022-03-31,16:55:00,DRY,4.45,8.05,48.0,772.00,655.0
2022-03-31,17:00:00,DRY,5.37,7.63,50.0,772.00,632.4
2022-03-31,17:05:00,DRY,5.05,7.60,48.5,772.00,612.3
2022-03-31,17:10:00,DRY,4.73,7.63,48.3,772.00,589.8
2022-03-31,17:15:00,DRY,5.80,7.75,47.0,772.00,568.6
2022-03-31,17:20:00,DRY,4.53,7.50,47.7,772.00,546.6
2022-03-31,17:25:00,DRY,4.60,7.50,49.0,772.00,523.9
2022-03-31,17:30:00,DRY,5.73,7.37,48.3,772.00,500.8
2022-03-31,17:35:00,DRY,5.10,7.35,49.0,772.00,476.9
2022-03-31,17:40:00,DRY,5.80,7.27,49.7,772.00,453.3
2022-03-31,17:45:00,DRY,3.60,7.20,49.0,772.00,429.9
2022-03-31,17:50:00,DRY,6.03,7.13,52.7,772.00,406.4
2022-03-31,17:55:00,DRY,6.90,6.90,53.0,772.00,382.3
2022-03-31,18:00:00,DRY,5.83,6.73,52.3,772.00,358.2
2022-03-31,18:05:00,DRY,6.85,6.55,51.0,772.00,334.6
2022-03-31,18:10:00,DRY,6.60,6.43,52.3,772.00,310.4
2022-03-31,18:15:00,DRY,7.50,6.55,52.0,772.00,286.6
2022-03-31,18:20:00,DRY,7.23,6.43,52.7,772.00,262.9
2022-03-31,18:25:00,DRY,6.55,6.30,53.0,772.00,239.8
2022-03-31,18:30:00,DRY,6.37,6.10,51.7,772.00,217.1
2022-03-31,18:35:00,DRY,6.25,5.90,52.0,772.00,170.3
2022-03-31,18:40:00,DRY,5.97,5.87,51.3,772.00,37.4
2022-03-31,18:45:00,DRY,7.30,6.10,52.5,772.00,32.0
2022-03-31,18:50:00,DRY,6.03,6.10,54.3,772.00,30.1
2022-03-31,18:55:00,DRY,5.75,6.05,54.5,772.00,28.6
2022-03-31,19:00:00,DRY,6.20,6.17,53.7,772.00,26.4
2022-03-31,19:05:00,DRY,5.80,6.20,54.5,772.00,23.4
2022-03-31,19:10:00,DRY,6.93,6.17,54.3,772.33,20.5
2022-03-31,19:15:00,DRY,6.35,6.10,54.0,772.00,17.3
2022-03-31,19:20:00,DRY,6.40,6.07,53.3,772.67,13.9
2022-03-31,19:25:00,DRY,5.45,6.00,52.5,772.50,10.5
2022-03-31,19:30:00,DRY,5.83,5.97,52.7,773.00,7.4
2022-03-31,19:35:00,DRY,7.25,5.90,53.5,772.50,4.2
2022-03-31,19:40:00,DRY,6.63,5.93,52.7,773.00,2.5
2022-03-31,19:45:00,DRY,5.55,5.80,53.5,773.00,1.4
2022-03-31,19:50:00,DRY,6.90,5.63,52.7,773.00,1.1
2022-03-31,19:55:00,DRY,5.45,5.80,46.5,773.00,0.2
2022-03-31,20:00:00,DRY,6.43,5.80,47.7,773.00,1.0
2022-03-31,20:05:00,DRY,5.80,5.75,42.5,773.00,1.4
2022-03-31,20:10:00,DRY,6.70,5.67,55.0,773.00,1.0
2022-03-31,20:15:00,DRY,6.10,5.50,55.5,773.00,1.2
2022-03-31,20:20:00,DRY,6.10,5.53,51.0,773.00,1.4
2022-03-31,20:25:00,DRY,5.60,5.50,57.0,773.00,1.1
2022-03-31,20:30:00,DRY,5.77,5.57,52.0,773.00,0.9
2022-03-31,20:35:00,DRY,6.50,5.60,49.5,773.00,1.2
2022-03-31,20:40:00,DRY,6.53,5.77,45.7,773.00,0.9
2022-03-31,20:45:00,DRY,7.70,5.70,49.0,773.00,2.3
2022-03-31,20:50:00,DRY,5.93,5.83,44.7,773.00,1.3
2022-03-31,20:55:00,DRY,6.40,6.00,41.0,773.00,1.0
2022-03-31,21:00:00,DRY,7.33,5.97,43.7,773.00,1.6
2022-03-31,21:05:00,DRY,5.70,5.65,46.5,773.50,1.2
2022-03-31,21:10:00,DRY,7.37,5.63,44.7,773.00,1.1
2022-03-31,21:15:00,DRY,6.05,5.90,44.0,773.00,0.8
2022-03-31,21:20:00,DRY,7.10,6.00,43.7,773.33,1.1
2022-03-31,21:25:00,DRY,7.35,6.15,42.5,773.50,1.1
2022-03-31,21:30:00,DRY,5.10,6.27,41.0,774.00,1.1
2022-03-31,21:35:00,DRY,6.05,6.40,40.0,774.00,1.3
2022-03-31,21:40:00,DRY,4.77,6.40,38.7,774.00,1.0
2022-03-31,21:45:00,DRY,5.55,6.40,39.0,774.00,1.0
2022-03-31,21:50:00,DRY,6.43,6.43,37.3,774.00,1.0
2022-03-31,21:55:00,DRY,8.10,6.55,33.5,774.00,0.8
2022-03-31,22:00:00,DRY,5.03,6.73,31.7,774.00,1.1
2022-03-31,22:05:00,DRY,6.50,6.75,29.0,774.00,0.8
2022-03-31,22:10:00,DRY,5.47,6.77,29.7,774.00,0.9
2022-03-31,22:15:00,DRY,5.45,6.70,29.0,774.00,1.1
2022-03-31,22:20:00,DRY,5.83,6.73,28.3,774.00,1.6
2022-03-31,22:25:00,DRY,4.85,6.70,27.5,774.00,1.1
2022-03-31,22:30:00,DRY,4.20,6.90,26.7,774.00,1.2
2022-03-31,22:35:00,DRY,4.90,7.15,27.0,774.00,1.4
2022-03-31,22:40:00,DRY,5.00,7.23,27.0,774.00,1.3
2022-03-31,22:45:00,DRY,3.95,7.40,28.5,774.00,0.8
2022-03-31,22:50:00,DRY,5.07,7.73,27.7,774.00,1.3
2022-03-31,22:55:00,DRY,3.80,7.45,27.0,774.00,1.6
2022-03-31,23:00:00,DRY,4.57,7.63,27.3,774.00,1.1
2022-03-31,23:05:00,DRY,4.25,7.65,26.0,774.00,1.1
2022-03-31,23:10:00,DRY,5.70,7.53,25.7,774.00,1.2
2022-03-31,23:15:00,DRY,5.90,7.50,27.0,774.00,1.3
2022-03-31,23:20:00,DRY,3.60,7.43,27.0,774.00,1.3
2022-03-31,23:25:00,DRY,3.70,7.50,27.5,774.00,0.9
2022-03-31,23:30:00,DRY,5.40,7.70,27.0,774.00,1.2
2022-03-31,23:35:00,,,,,,
2022-03-31,23:40:00,,,,,,
2022-03-31,23:45:00,,,,,,
2022-03-31,23:50:00,,,,,,
2022-03-31,23:55:00,,,,,,
2022-04-01,00:00:00,,,,,,
2022-04-01,00:05:00,,,,,,
2022-04-01,00:10:00,,,,,,
2022-04-01,00:15:00,,,,,,
2022-04-01,00:20:00,,,,,,
2022-04-01,00:25:00,,,,,,
2022-04-01,00:30:00,,,,,,
2022-04-01,00:35:00,,,,,,
2022-04-01,00:40:00,DRY,5.35,7.55,27.5,774.00,1.5
2022-04-01,00:45:00,DRY,5.00,7.45,27.5,773.00,1.1
2022-04-01,00:50:00,DRY,4.43,7.37,27.7,773.00,0.8
2022-04-01,00:55:00,DRY,6.05,7.40,27.5,773.00,1.4
2022-04-01,01:00:00,DRY,3.97,7.50,27.3,773.00,1.0
2022-04-01,01:05:00,DRY,3.75,7.70,26.5,773.00,1.2
2022-04-01,01:10:00,DRY,4.37,7.93,26.3,773.00,1.3
2022-04-01,01:15:00,DRY,3.20,8.35,27.0,773.00,0.9
2022-04-01,01:20:00,DRY,2.97,8.20,26.0,773.00,1.1
2022-04-01,01:25:00,DRY,2.55,8.30,26.5,773.00,0.7
2022-04-01,01:30:00,DRY,2.43,8.63,26.3,773.00,1.0
2022-04-01,01:35:00,DRY,1.60,8.65,26.5,773.00,1.8
2022-04-01,01:40:00,DRY,1.10,8.43,26.0,773.00,1.5
2022-04-01,01:45:00,DRY,1.00,7.95,27.5,773.00,0.8
2022-04-01,01:50:00,DRY,1.43,8.13,28.0,773.00,1.5
2022-04-01,01:55:00,DRY,1.55,8.45,27.0,773.00,0.9
2022-04-01,02:00:00,DRY,1.63,8.30,27.0,773.00,1.9
2022-04-01,02:05:00,DRY,1.05,8.30,28.0,773.00,1.7
2022-04-01,02:10:00,DRY,1.37,7.93,28.3,773.00,0.9
2022-04-01,02:15:00,DRY,2.05,7.95,28.0,773.00,1.8
2022-04-01,02:20:00,DRY,2.53,8.03,28.3,773.00,1.6
2022-04-01,02:25:00,DRY,3.15,8.00,28.0,772.50,1.4
2022-04-01,02:30:00,DRY,2.47,7.80,29.3,773.00,1.2
2022-04-01,02:35:00,DRY,3.20,7.85,28.5,773.00,0.7
2022-04-01,02:40:00,DRY,2.07,7.77,28.7,773.00,1.8
2022-04-01,02:45:00,DRY,2.25,7.85,29.5,773.00,0.6
2022-04-01,02:50:00,DRY,1.93,8.00,28.7,772.67,1.4
2022-04-01,02:55:00,DRY,1.20,8.45,28.0,772.50,1.4
2022-04-01,03:00:00,DRY,1.03,8.23,28.0,772.00,1.1
2022-04-01,03:05:00,DRY,1.55,8.05,29.0,772.00,0.9
2022-04-01,03:10:00,DRY,1.90,8.13,29.0,772.00,1.3
2022-04-01,03:15:00,DRY,2.75,7.85,29.0,772.00,1.1
2022-04-01,03:20:00,DRY,2.23,7.83,29.3,772.00,1.3
2022-04-01,03:25:00,DRY,0.95,7.45,30.0,772.00,1.2
2022-04-01,03:30:00,DRY,1.40,7.73,30.0,772.00,0.8
2022-04-01,03:35:00,DRY,2.25,7.75,29.5,772.00,1.3
2022-04-01,03:40:00,DRY,1.97,8.07,28.0,772.00,1.1
2022-04-01,03:45:00,DRY,1.80,8.20,27.5,772.00,1.2
2022-04-01,03:50:00,DRY,2.00,7.97,27.0,772.00,0.4
2022-04-01,03:55:00,DRY,1.90,8.00,26.5,772.00,0.4
2022-04-01,04:00:00,DRY,1.80,7.97,26.0,772.00,2.0
2022-04-01,04:05:00,DRY,2.90,8.15,21.5,772.00,1.4
2022-04-01,04:10:00,DRY,2.90,8.23,21.7,772.00,1.1
2022-04-01,04:15:00,DRY,4.10,8.10,20.5,772.00,1.4
2022-04-01,04:20:00,DRY,2.03,8.40,23.0,772.00,1.1
2022-04-01,04:25:00,DRY,1.30,8.05,24.0,772.00,1.1
2022-04-01,04:30:00,DRY,2.10,7.77,25.7,772.00,0.9
2022-04-01,04:35:00,DRY,2.10,7.75,24.5,772.00,1.9
2022-04-01,04:40:00,DRY,2.57,8.07,23.7,771.33,1.4
2022-04-01,04:45:00,DRY,1.95,7.95,24.5,771.50,1.5
2022-04-01,04:50:00,DRY,2.73,7.73,24.7,771.00,0.4
2022-04-01,04:55:00,DRY,3.10,7.80,24.5,771.00,0.8
2022-04-01,05:00:00,DRY,3.07,7.77,21.0,771.33,1.0
2022-04-01,05:05:00,DRY,2.75,7.60,21.0,771.00,0.9
2022-04-01,05:10:00,DRY,3.47,7.73,17.3,771.00,1.1
2022-04-01,05:15:00,DRY,1.45,7.95,15.5,771.50,1.2
2022-04-01,05:20:00,DRY,1.13,7.87,16.7,771.67,1.1
2022-04-01,05:25:00,DRY,1.30,8.10,19.0,771.00,1.0
2022-04-01,05:30:00,DRY,2.00,7.73,17.3,771.00,0.2
2022-04-01,05:35:00,DRY,1.20,7.70,16.5,771.00,1.2
2022-04-01,05:40:00,DRY,1.23,7.83,13.7,771.67,1.4
2022-04-01,05:45:00,DRY,1.45,7.75,14.0,771.50,0.1
2022-04-01,05:50:00,DRY,1.50,7.63,13.7,771.33,1.4
2022-04-01,05:55:00,DRY,0.60,7.70,14.0,772.00,1.3
2022-04-01,06:00:00,DRY,0.43,7.63,13.0,771.67,1.2
2022-04-01,06:05:00,DRY,1.30,7.50,13.0,771.50,0.2
2022-04-01,06:10:00,DRY,1.37,7.83,12.0,771.33,0.8
2022-04-01,06:15:00,DRY,1.70,7.70,12.5,771.00,1.2
2022-04-01,06:20:00,DRY,0.97,7.87,12.0,771.00,1.3
2022-04-01,06:25:00,DRY,1.35,7.60,12.0,771.00,1.1
2022-04-01,06:30:00,DRY,2.13,7.73,12.0,771.00,1.8
2022-04-01,06:35:00,DRY,1.60,7.85,12.5,771.50,0.3
2022-04-01,06:40:00,DRY,0.93,7.73,12.3,772.00,1.3
2022-04-01,06:45:00,DRY,0.95,7.85,11.5,771.00,2.2
2022-04-01,06:50:00,DRY,2.00,8.10,10.3,771.00,1.6
2022-04-01,06:55:00,DRY,1.50,8.25,10.5,772.00,2.9
2022-04-01,07:00:00,DRY,2.53,8.33,12.0,772.00,7.0
2022-04-01,07:05:00,DRY,2.15,8.80,11.0,772.00,16.6
2022-04-01,07:10:00,DRY,2.57,8.50,10.3,772.00,29.7
2022-04-01,07:15:00,DRY,2.50,8.05,11.0,772.00,28.6
2022-04-01,07:20:00,DRY,2.47,8.20,10.3,772.00,19.9
2022-04-01,07:25:00,DRY,2.05,8.20,11.5,772.00,22.2
2022-04-01,07:30:00,DRY,1.70,8.57,10.7,772.00,25.1
2022-04-01,07:35:00,DRY,1.00,8.45,10.5,772.00,27.0
2022-04-01,07:40:00,DRY,0.73,8.77,12.3,772.00,29.0
2022-04-01,07:45:00,DRY,0.70,8.65,14.5,772.00,30.6
2022-04-01,07:50:00,DRY,0.43,8.50,14.7,772.00,32.2
2022-04-01,07:55:00,DRY,1.05,8.40,15.0,772.00,32.8
2022-04-01,08:00:00,DRY,0.77,8.50,15.0,772.00,34.9
2022-04-01,08:05:00,DRY,0.80,8.40,15.5,772.00,37.5
2022-04-01,08:10:00,DRY,0.87,8.63,14.3,772.00,192.2
2022-04-01,08:15:00,DRY,0.75,9.30,14.0,772.00,344.2
2022-04-01,08:20:00,DRY,0.37,9.93,15.0,772.00,368.2
2022-04-01,08:25:00,DRY,0.90,10.40,16.0,772.00,393.4
2022-04-01,08:30:00,DRY,1.27,9.67,16.3,772.00,417.5
2022-04-01,08:35:00,DRY,0.85,9.60,16.5,772.00,442.9
2022-04-01,08:40:00,DRY,1.00,9.60,16.7,772.00,466.0
2022-04-01,08:45:00,DRY,1.25,9.65,17.5,772.00,488.9
2022-04-01,08:50:00,DRY,1.27,9.60,17.0,772.00,514.1
2022-04-01,08:55:00,DRY,1.25,9.50,19.0,772.00,537.6
2022-04-01,09:00:00,DRY,1.97,9.50,23.3,772.00,559.9
2022-04-01,09:05:00,DRY,1.95,9.20,26.0,772.00,581.8
2022-04-01,09:10:00,DRY,2.10,9.37,24.3,772.00,601.1
2022-04-01,09:15:00,DRY,2.80,9.50,25.5,772.00,626.3
2022-04-01,09:20:00,DRY,2.67,9.40,22.3,772.00,649.3
2022-04-01,09:25:00,DRY,2.75,9.55,24.0,772.00,670.9
2022-04-01,09:30:00,DRY,2.03,9.43,25.3,772.00,688.8
2022-04-01,09:35:00,DRY,2.20,9.50,27.0,772.00,706.3
2022-04-01,09:40:00,DRY,2.73,9.47,26.3,772.00,730.2
2022-04-01,09:45:00,DRY,2.55,9.60,24.5,772.00,751.8
2022-04-01,09:50:00,DRY,2.27,9.67,25.3,772.00,768.7
2022-04-01,09:55:00,DRY,2.50,9.65,26.0,772.00,781.9
2022-04-01,10:00:00,DRY,2.60,9.87,28.0,772.00,803.0
2022-04-01,10:05:00,DRY,1.85,10.25,25.5,772.00,823.2
2022-04-01,10:10:00,DRY,2.80,10.63,27.3,772.00,844.8
2022-04-01,10:15:00,DRY,3.15,10.50,27.0,772.00,859.5
2022-04-01,10:20:00,DRY,2.10,10.63,28.3,772.00,876.8
2022-04-01,10:25:00,DRY,1.70,10.90,26.0,772.00,892.0
2022-04-01,10:30:00,DRY,1.20,11.30,23.3,772.00,910.1
2022-04-01,10:35:00,DRY,1.45,11.50,22.0,772.00,920.2
2022-04-01,10:40:00,DRY,1.50,11.73,26.0,772.00,940.9
2022-04-01,10:45:00,DRY,2.15,11.95,25.5,772.00,957.3
2022-04-01,10:50:00,DRY,1.40,12.10,22.0,772.00,970.9
2022-04-01,10:55:00,DRY,1.80,12.35,23.0,772.00,981.0
2022-04-01,11:00:00,DRY,1.13,12.80,25.0,772.00,998.3
2022-04-01,11:05:00,DRY,1.85,13.10,18.0,772.00,1013.7
2022-04-01,11:10:00,DRY,0.73,13.37,24.0,772.00,1024.5
2022-04-01,11:15:00,DRY,1.65,12.60,30.5,772.00,1028.7
2022-04-01,11:20:00,DRY,1.90,12.60,31.7,772.00,1043.0
2022-04-01,11:25:00,DRY,2.30,13.00,25.0,772.00,1055.4
2022-04-01,11:30:00,DRY,1.97,12.87,36.7,772.00,1067.1
2022-04-01,11:35:00,DRY,1.60,12.50,38.0,772.00,1077.0
2022-04-01,11:40:00,DRY,1.13,12.90,38.7,772.00,1084.9
2022-04-01,11:45:00,DRY,0.95,13.05,27.0,772.00,1096.5
2022-04-01,11:50:00,DRY,2.30,13.37,23.3,772.00,1106.5
2022-04-01,11:55:00,DRY,2.15,13.55,27.0,772.00,1118.3
2022-04-01,12:00:00,DRY,1.23,13.87,21.0,772.00,1120.5
2022-04-01,12:05:00,DRY,1.95,13.05,20.5,772.00,1126.8
2022-04-01,12:10:00,DRY,2.30,13.20,20.7,772.00,1129.4
2022-04-01,12:15:00,DRY,2.40,13.30,22.0,772.00,1132.5
2022-04-01,12:20:00,DRY,2.37,13.40,23.3,772.00,1136.9
2022-04-01,12:25:00,DRY,1.50,13.55,22.5,772.00,1141.3
2022-04-01,12:30:00,DRY,1.80,14.10,28.7,772.00,1147.8
2022-04-01,12:35:00,DRY,1.55,14.40,22.0,772.00,1156.1
2022-04-01,12:40:00,DRY,1.17,13.90,21.0,771.00,1154.6
2022-04-01,12:45:00,DRY,1.70,13.70,22.0,771.00,1157.2
2022-04-01,12:50:00,DRY,1.77,13.53,23.0,771.00,1156.4
2022-04-01,12:55:00,DRY,1.60,13.20,31.5,771.00,1133.6
2022-04-01,13:00:00,DRY,2.17,13.17,42.7,771.00,1112.2
2022-04-01,13:05:00,DRY,1.55,13.20,53.5,771.00,1091.9
2022-04-01,13:10:00,DRY,0.90,13.43,43.7,771.00,1123.1
2022-04-01,13:15:00,DRY,1.40,14.00,27.5,771.00,1107.4
2022-04-01,13:20:00,DRY,1.83,13.67,35.3,771.00,1142.1
2022-04-01,13:25:00,DRY,1.50,14.00,37.0,771.00,1171.2
2022-04-01,13:30:00,DRY,2.10,13.70,39.0,771.00,1160.8
2022-04-01,13:35:00,DRY,2.00,12.90,38.0,771.00,1114.9
2022-04-01,13:40:00,DRY,1.63,13.23,38.3,771.00,1125.9
2022-04-01,13:45:00,DRY,1.50,12.95,40.0,771.00,1137.6
2022-04-01,13:50:00,DRY,2.07,12.40,41.3,771.00,1137.6
2022-04-01,13:55:00,DRY,1.80,12.60,39.0,771.00,1121.8
2022-04-01,14:00:00,DRY,1.67,13.23,36.7,771.00,1115.7
2022-04-01,14:05:00,DRY,1.65,13.10,55.0,771.00,1123.1
2022-04-01,14:10:00,DRY,1.43,13.17,49.0,771.00,1119.1
2022-04-01,14:15:00,DRY,1.65,12.65,55.5,771.00,1087.9
2022-04-01,14:20:00,DRY,1.77,12.97,58.0,771.00,1071.9
2022-04-01,14:25:00,DRY,1.85,12.50,63.0,771.00,1075.0
2022-04-01,14:30:00,DRY,1.73,12.07,69.3,771.00,1083.1
2022-04-01,14:35:00,DRY,1.50,12.30,69.0,771.00,1054.2
2022-04-01,14:40:00,DRY,2.37,12.03,71.7,771.00,994.3
2022-04-01,14:45:00,DRY,1.55,11.45,73.0,771.00,1013.0
2022-04-01,14:50:00,DRY,1.63,12.40,69.3,770.33,997.5
2022-04-01,14:55:00,DRY,1.30,12.55,71.0,771.00,972.1
2022-04-01,15:00:00,DRY,1.27,12.70,72.3,770.33,911.2
2022-04-01,15:05:00,DRY,0.90,12.35,72.5,770.00,876.2
2022-04-01,15:10:00,DRY,1.93,12.27,71.0,770.33,852.8
2022-04-01,15:15:00,DRY,1.65,11.60,76.0,770.50,744.1
2022-04-01,15:20:00,DRY,0.83,12.17,66.0,770.00,680.8
2022-04-01,15:25:00,DRY,1.70,12.20,54.0,770.00,730.0
2022-04-01,15:30:00,DRY,1.40,12.57,51.7,770.00,772.7
2022-04-01,15:35:00,DRY,1.60,12.85,46.5,770.00,736.9
2022-04-01,15:40:00,DRY,1.30,12.57,52.7,770.00,698.9
2022-04-01,15:45:00,DRY,1.25,12.95,64.0,770.00,804.5
2022-04-01,15:50:00,DRY,1.07,12.67,64.7,770.00,916.3
2022-04-01,15:55:00,DRY,1.55,11.60,69.5,770.00,880.5
2022-04-01,16:00:00,DRY,1.20,11.57,69.3,770.00,802.0
2022-04-01,16:05:00,DRY,1.55,12.35,64.5,770.00,723.1
2022-04-01,16:10:00,DRY,1.27,12.43,64.7,770.00,787.1
2022-04-01,16:15:00,DRY,1.75,12.55,61.0,770.00,788.0
2022-04-01,16:20:00,DRY,1.03,12.57,64.0,770.00,800.9
2022-04-01,16:25:00,DRY,1.35,12.25,64.0,770.00,821.0
2022-04-01,16:30:00,DRY,1.23,11.47,66.7,770.00,793.4
2022-04-01,16:35:00,DRY,0.95,11.95,64.5,770.00,757.8
2022-04-01,16:40:00,DRY,0.93,12.90,51.3,770.00,754.7
2022-04-01,16:45:00,DRY,1.05,12.45,57.5,770.00,718.7
2022-04-01,16:50:00,DRY,1.07,11.83,60.0,770.00,693.3
2022-04-01,16:55:00,DRY,1.65,12.25,58.5,770.00,670.2
2022-04-01,17:00:00,DRY,1.03,10.90,62.3,770.00,655.7